Regional Weather Roundup
Issued by NWS

Home | Current Version | Previous Version | Text Only | Print | Product List | Glossary On
Versions: 1 2 3 4 5 6 7 8 9 10 11 12 13 14 15 16 17 18 19 20 21 22 23 24 25 26 27 28 29 30 31 32 33 34 35 36 37 38 39 40 41 42 43 44 45 46 47 48 49 50
000
ASUS43 KMPX 260101
RWRMN
WEATHER ROUNDUP FOR MINNESOTA
NATIONAL WEATHER SERVICE TWIN CITIES/CHANHASSEN MN
800 PM CDT TUE APR 25 2017


NOTE: "FAIR" INDICATES FEW OR NO CLOUDS BELOW 12,000 FEET WITH NO
SIGNIFICANT WEATHER AND/OR OBSTRUCTIONS TO VISIBILITY. N/A MEANS
CURRENT SKY AND/OR WEATHER CONDITIONS ARE NOT AVAILABLE.

MNZ060>063-068>070-260200-
   Twin Cities Metro

CITY           SKY/WX    TMP DP  RH WIND       PRES   REMARKS
TWIN CITIES    LGT RAIN  54  52  93 N9        29.57S FOG
ST PAUL        RAIN      54  54 100 N5        29.58S FOG
CRYSTAL        HVY RAIN  53  50  89 NE3       29.57S FOG
LAKEVILLE      RAIN      52  52 100 N6        29.55F
EDEN PRAIRIE   LGT RAIN  54  51  90 N6        29.55F FOG
SOUTH ST PAUL  LGT RAIN  54  54  98 N5        29.57S
LAKE ELMO      HVY RAIN  54  54 100 N3        29.59R
$$
MNZ001>005-007-008-013>017-022>024-027-028-260200-
   Northwest Minnesota

CITY           SKY/WX    TMP DP  RH WIND       PRES   REMARKS
BEMIDJI        CLOUDY    32  29  88 N13G22    29.77F WCI  22
HALLOCK        CLOUDY    36  27  69 NE16      29.93R
ROSEAU         CLOUDY    34  27  75 NE21      29.92S WCI  22
WARROAD        CLOUDY    32  27  80 NE23G30   29.93R WCI  19
THIEF RVR FALL CLOUDY    32  26  78 NE24G30   29.86S WCI  19
CROOKSTON      CLOUDY    34  28  80 NE18G25   29.87R WCI  23
FOSSTON        CLOUDY    30  28  93 N17G25    29.80S WCI  18
DETROIT LAKES  CLOUDY    36  32  87 NE12      29.74R
MOORHEAD       CLOUDY    36  28  75 N25G31    29.77S
PARK RAPIDS    CLOUDY    36  29  75 NE18G24   29.71R
MAHNOMEN       CLOUDY    34  30  85 NE24G31   29.75F WCI  21
$$
MNZ006-009>011-018-025>026-260200-
   North Central Minnesota

CITY           SKY/WX    TMP DP  RH WIND       PRES   REMARKS
BAUDETTE       CLOUDY    30  24  78 NE14      29.89R WCI  19
FLAG ISLAND    CLOUDY    30  25  80 NE20G31   29.94S WCI  18
INTL FALLS     CLOUDY    29  24  82 NE15G25   29.86R WCI  18
WASKISH        CLOUDY    30  27  86 NE16G22   29.84R WCI  19
BIG FORK       CLOUDY    30  27  86 N10G16    29.80R WCI  21
LONGVILLE      CLOUDY    34  30  86 N10G16    29.73R WCI  26
GRAND RAPIDS   CLOUDY    33  29  85 N13G21    29.75R WCI  24
CRANE LAKE     CLOUDY    27  25  93 N9        29.85R WCI  17
ORR            CLOUDY    28  25  86 NE7       29.80R WCI  21
COOK           CLOUDY    28  27  93 N8        29.81R WCI  20
WALKER         CLOUDY    32  29  88 N14G20    29.74R WCI  22
$$
MNZ012-019>021-037-260200-
   Northeast Minnesota

CITY           SKY/WX    TMP DP  RH WIND       PRES   REMARKS
DULUTH         CLOUDY    42  40  92 E15       29.69R
ELY            CLOUDY    30  28  93 N7G20     29.78R WCI  23
HIBBING        CLOUDY    32  30  92 NE13G22   29.76R WCI  22
EVELETH        CLOUDY    34  31  90 NE12      29.76R WCI  26
DULUTH HARBOR  RAIN      39  37  93 NE17      29.71R
TWO HARBORS    DRIZZLE   43  37  81 CALM      29.70R
SILVER BAY     DRIZZLE   39  37  93 N7        29.71S
GRAND MARAIS     N/A     37  32  82 N13G29    29.70R
G MARAIS ARPRT LGT SNOW  28  25  86 N14G24    29.72R WCI  17
$$
MNZ029>031-032-039>041-046>048-054>057-064-260200-
   West Central Minnesota

CITY           SKY/WX    TMP DP  RH WIND       PRES   REMARKS
FERGUS FALLS   CLOUDY    39  34  81 N10G18    29.70S
WHEATON        CLOUDY    37  34  87 NW16G22   29.72S
MORRIS         DRIZZLE   43  37  81 N18       29.65R
ALEXANDRIA     CLOUDY    41  36  82 N22       29.66R
ELBOW LAKE     CLOUDY    40  35  84 NE16G23   29.68S
WADENA         CLOUDY    37  34  87 N15G25    29.69R
GLENWOOD       DRIZZLE   43  37  81 N16G22    29.63S
APPLETON       DRIZZLE   43  37  81 N10       29.65R
BENSON         DRIZZLE   46  37  71 NE14      29.65R
ORTONVILLE     CLOUDY    37  34  87 N17G26    29.68R
MADISON        DRIZZLE   43  39  87 NW16G28   29.66R
WILLMAR        LGT RAIN  45  45 100 N16       29.62R
$$
MNZ033>034-036-042>043-049>051-058-059-260200-
   Central Minnesota

CITY           SKY/WX    TMP DP  RH WIND       PRES   REMARKS
ST CLOUD       LGT RAIN  48  46  93 NE10      29.60S
SAUK CENTRE    DRIZZLE   42  37  82 N13G18    29.64R
PAYNESVILLE    RAIN      45  44  98 N13       29.61R
AITKIN         MIX PCPN  43  36  75 N10       29.67R
PINE RIVER     CLOUDY    36  32  87 N15G21    29.75R
BRAINERD       CLOUDY    42  36  79 N16       29.68R
STAPLES        CLOUDY    37  34  87 N10G17    29.69R
LONG PRAIRIE   CLOUDY    41  36  81 NW13G20   29.65R
LITTLE FALLS   LGT RAIN  43  37  81 N3        29.64R
LITCHFIELD     RAIN      48  46  93 VRB9      29.59R
BUFFALO        RAIN      53  50  92 CALM      29.59S
MAPLE LAKE     LGT RAIN  51  49  96 N9        29.59S
HUTCHINSON     LGT RAIN  52  52  97 N9G17     29.58R
$$
MNZ037-044-045-052-053-260200-
   East Central Minnesota

CITY           SKY/WX    TMP DP  RH WIND       PRES   REMARKS
PRINCETON      LGT RAIN  50  46  87 NE10      29.62R
MORA           LGT RAIN  45  41  87 NE7       29.63S
CAMBRIDGE      LGT RAIN  48  43  81 N6        29.60R
RUSH CITY      LGT RAIN  47  44  88 N5        29.62R
MOOSE LAKE     LGT RAIN  43  39  87 NE7       29.65S
HINCKLEY       LGT RAIN  46  43  87 NE13      29.62S
CLOQUET        LGT RAIN  43  39  87 NE13      29.69R
MCGREGOR       CLOUDY    41  37  87 N10       29.68S
$$
MNZ071>073-080-081-089-090-097-098-260200-
   Southwest Minnesota

CITY           SKY/WX    TMP DP  RH WIND       PRES   REMARKS
MONTEVIDEO     DRIZZLE   43  39  87 N12       29.63R
GRANITE FALLS  LGT RAIN  44  41  90 NW14      29.64R
CANBY          LGT RAIN  39  37  91 NW16G23   29.67S
MARSHALL       LGT RAIN  39  37  92 NW16      29.63R FOG
REDWOOD FALLS  LGT RAIN  45  43  93 NW10      29.58R
OLIVIA         RAIN      50  46  87 N9        29.58R
PIPESTONE      LGT RAIN  37  34  87 N14G23    29.63R
WINDOM         LGT RAIN  41  39  93 NW21G26   29.57F
WORTHINGTON    LGT RAIN  39  38  96 NW17      29.59F FOG
JACKSON        DRIZZLE   41  41 100 NW13G20   29.57S
TRACY          RAIN      40  39  98 NW16G24   29.62R
SLAYTON        LGT RAIN  37  37  97 NW15G23   29.62R
$$
MNZ065>067-074>077-082>085-091>093-260200-
   South Central Minnesota

CITY           SKY/WX    TMP DP  RH WIND       PRES   REMARKS
MANKATO        LGT RAIN  48  47  96 NW3       29.57R FOG
NEW ULM        LGT RAIN  48  48 100 NW8       29.55S
ST JAMES       LGT RAIN  45  45 100 NW10      29.57R
FAIRMONT       RAIN      44  43  96 N15       29.54F FOG
GLENCOE        DRIZZLE   52  52 100 CALM      29.55F
FARIBAULT      RAIN      50  50 100 NW6       29.56S
OWATONNA       RAIN      50  48  93 NW6       29.56R
WASECA         RAIN      46  45  93 N7        29.57R
ALBERT LEA     DRIZZLE   48  46  93 N9        29.52F
$$
MNZ078>079-086>088-094>096-260200-
   Southeast Minnesota

CITY           SKY/WX    TMP DP  RH WIND       PRES   REMARKS
ROCHESTER      LGT RAIN  53  53 100 NE10      29.52S
RED WING       CLOUDY    55  52  88 E6        29.53S
STANTON        CLOUDY    53  51  94 N3        29.54S FOG
DODGE CENTER   LGT RAIN  52  52 100 NE6       29.53R
WINONA         CLOUDY    55  52  88 CALM      29.53S
AUSTIN         CLOUDY    54  52  94 NW8       29.51R
PRESTON        CLOUDY    55  51  87 NE10      29.50S
$$
ABBREVIATIONS USED IN REMARKS
   TC - TEMPERATURES IN CELSIUS
  WCI - WIND CHILL INDEX
   HX - HEAT INDEX
  VSB - VISIBILITY
$$




USA.gov is the U.S. government's official web portal to all federal, state and local government web resources and services.